Regional Weather Roundup
Issued by NWS

Home | Current Version | Previous Version | Graphics & Text | Print | Product List | Glossary On
Versions: 1 2 3 4 5 6 7 8 9 10 11 12 13 14 15 16 17 18 19 20 21 22 23 24 25 26 27 28 29 30 31 32 33 34 35 36 37 38 39 40 41 42 43 44 45 46 47 48 49 50
000
ASUS43 KLOT 222303
RWRIL

ILLINOIS REGIONAL WEATHER ROUNDUP
NATIONAL WEATHER SERVICE CHICAGO/ROMEOVILLE IL
500 PM CST SUN JAN 22 2017

NOTE: "FAIR" INDICATES FEW OR NO CLOUDS BELOW 12,000 FEET WITH NO
SIGNIFICANT WEATHER AND/OR OBSTRUCTIONS TO VISIBILITY.

* THESE STATIONS ARE NOT UNDER NWS QUALITY CONTROL. THEY ALSO MAY NOT
  REPORT WEATHER SUCH AS PRECIPITATION OR FOG.

ILZ001-002-007-009-015-016-024-230000-
NORTHWEST ILLINOIS

CITY           SKY/WX    TMP DP  RH WIND       PRES   REMARKS
MOLINE         CLOUDY    43  35  73 NW6       29.66R
STERLING*      CLOUDY    42  37  82 N6        29.66R
SAVANNA*       PTCLDY    40  35  84 NW7       29.67S
$$

ILZ003-004-008-010-011-017-018-230000-
NORTH CENTRAL ILLINOIS

CITY           SKY/WX    TMP DP  RH WIND       PRES   REMARKS
ROCKFORD       CLOUDY    41  35  79 N9        29.67R
FREEPORT*      PTCLDY    38  34  88 NW8       29.68R WCI  32
ROCHELLE*      CLOUDY    40  37  89 N6        29.66R
DE KALB*       CLOUDY    38  37  99 N6        29.65R FOG     WCI  33
PERU*          CLOUDY    39  36  87 N9        29.65R WCI  33
$$

ILZ005-006-012>014-019>023-230000-
NORTHEAST ILLINOIS

CITY           SKY/WX    TMP DP  RH WIND       PRES   REMARKS
CHICAGO-OHARE  LGT RAIN  43  38  82 N8        29.63R
CHICAGO-MIDWAY CLOUDY    44  37  76 N9        29.64R
AURORA         CLOUDY    40  36  86 N7        29.65R
LANSING*       CLOUDY    40  40 100 N6        29.63S FOG
JOLIET*        CLOUDY    43  41  91 N8        29.63S
WAUKEGAN       CLOUDY    41  37  86 NW3       29.65R
DUPAGE AIRPORT CLOUDY    40  37  89 N8        29.64R
WHEELING       CLOUDY    42  38  85 NE5       29.66R
MORRIS*        CLOUDY    40  38  93 N5        29.63R
ROMEOVILLE*    CLOUDY    42  41  95 N9        29.63R
NORTHERLY ISL    N/A     38  38 100 N7          N/A  WCI  33
$$

LMZ740>746-230000-
SOUTHERN LAKE MICHIGAN

STATION/POSITION SKY/WX   TEMP    WIND        PRES    VSBY  WAVE
                          AIR SEA DIR/SP/G                  HT/PER
                          (F)     (DEG/KT/KT) (MB)    (MI)  (FT/S)
HARRISON CRIB              37     350/  9/  9   N/A
BURNHAM HARBOR             38     350/  6/  9   N/A
CALUMET HARBOR             37     340/  5/  8 1003.3
BURNS HARBOR               36      10/  9/ 11 1004.1S
MICHIGAN CITY              37     340/ 12/ 12   N/A
$$

ILZ025>027-034>036-040-047-049-050-058-095>099-230000-
WEST-CENTRAL ILLINOIS

CITY           SKY/WX    TMP DP  RH WIND       PRES   REMARKS
QUINCY         CLOUDY    39  36  89 N16       29.66R FOG     WCI  30
GALESBURG*     CLOUDY    39  37  92 NW8       29.66R FOG     WCI  33
MACOMB*        CLOUDY    39  38  95 NW13      29.68R FOG     WCI  31
JACKSONVILLE*  PTCLDY    45  38  75 N16       29.61R
PITTSFIELD*    CLOUDY    43  39  86 NW14      29.64R
$$

ILZ028>032-037-038-041>044-048-051>054-059>061-230000-
CENTRAL ILLINOIS

CITY           SKY/WX    TMP DP  RH WIND       PRES   REMARKS
BLOOMINGTON    CLOUDY    42  38  85 N16       29.61R
DECATUR        MOCLDY    46  43  89 N15       29.57R
PEORIA         CLOUDY    42  35  76 N8        29.63R
LACON*         CLOUDY    40  36  83 N9G16     29.64R
LINCOLN*       CLOUDY    45  41  85 N10G17    29.61R
SPRINGFIELD    CLOUDY    47  39  74 N12       29.61R
TAYLORVILLE    CLOUDY    46  43  88 N21G26    29.57R
$$

ILZ033-039-045-046-055>057-062-063-230000-
EAST-CENTRAL ILLINOIS

CITY           SKY/WX    TMP DP  RH WIND       PRES   REMARKS
CHAMPAIGN      CLOUDY    46  43  89 N23       29.55R FOG
MATTOON        CLOUDY    47  46  97 N22       29.51R FOG
PARIS*         CLOUDY    49  48  95 N13       29.51S
$$

ILZ079-100>102-230000-
SOUTHWEST ILLINOIS

CITY           SKY/WX    TMP DP  RH WIND       PRES   REMARKS
ALTON          MOCLDY    50  43  76 N16       29.55R
BELLEVILLE     CLOUDY    53  50  89 N24G32    29.48F
CAHOKIA*       CLOUDY    53  43  68 N21G26    29.52F
SPARTA*        CLOUDY    51  48  90 N17G31    29.47F
$$

ILZ064>066-069>071-074>076-080>082-084>086-088>090-092>094-230000-
SOUTH-CENTRAL ILLINOIS

CITY           SKY/WX    TMP DP  RH WIND       PRES   REMARKS
CARBONDALE     MOCLDY    55  52  89 N17G26    29.42R
CAIRO*         CLOUDY    59  52  78 NE6       29.40R
EFFINGHAM*     CLOUDY    50  50  99 NW20G25   29.49S FOG
MARION         PTCLDY    63  52  67 N15G22    29.41R
MT. VERNON     PTCLDY    58  53  84 N9G18     29.43R
CENTRALIA*     CLOUDY    55  52  90 N16G25    29.45S
SALEM*         CLOUDY    54  50  86 N24       29.45S FOG
$$

ILZ067-068-072-073-078-083-087-091-230000-
SOUTHEAST ILLINOIS

CITY           SKY/WX    TMP DP  RH WIND       PRES   REMARKS
LAWRENCEVILLE  PTCLDY    59  51  75 N18       29.40F
FLORA*         PTCLDY    58  54  86 N17G25    29.44R
HARRISBURG*    CLEAR     60  52  75 N8        29.41R
ROBINSON*      MOCLDY    58  51  76 N12       29.43F
CARMI*         CLEAR     59  51  74 N10       29.39R
$$

ABBREVIATIONS USED IN REMARKS
   TC - TEMPERATURE IN CELSIUS
  WCI - WIND CHILL INDEX
   HX - HEAT INDEX
  VSB - VISIBILITY
$$





USA.gov is the U.S. government's official web portal to all federal, state and local government web resources and services.